STARLINK-34431

Last updated on Thu Jul 03 2025 00:02:06 GMT+0000 (Coordinated Universal Time)

1 64353U 25126K 25183.58335648 -.01410824 00000+0 -17056-1 0 9999 2 64353 69.9994 310.2216 0003070 270.3298 307.9783 15.63226848 4326
UTC large
Height (km)
Speed (km/s)
/
Latitude / Longitude
Inclination (degrees)
Orbital Period (minutes)
Azimuth
Elevation
Range (km)
Doppler Factor

Next 0 passes for location: London (51.5072 / 0.1276)

Sorry there are no passes over London.